Violingletscher

KL  EN  DA
ASIAQ
Weather Now GREENLAND SURVEY
Updated [WGT/WGST] Temperature [°C] Wind [m/s] Air pressure [hPa] Relative humidity [%] Precipitation [mm]
Present Wind chill Speed Max
27.09 03:00-5,5-12,45,9 ⇓n/a96750n/a
27.09 02:00-5,7-12,55,8 ⇓n/a96750n/a
27.09 01:00-5,4-12,86,8 ⇓n/a96748n/a
27.09 00:00-5,7-12,96,4 ⇓n/a96752n/a
26.09 23:00-5,7-13,16,8 ⇓n/a96752n/a
26.09 22:00-5,6-13,17,0 ⇓n/a96753n/a
26.09 21:00-5,2-12,26,3 ⇓n/a96853n/a
26.09 20:00-4,2-11,47,1 ⇓n/a96750n/a
26.09 19:00-4,6-11,46,2 ⇓n/a96753n/a
26.09 18:00-5,0-11,35,2 ⇓n/a96759n/a
26.09 17:00-4,2-10,45,5 ⇓n/a96653n/a
26.09 16:00-3,5-9,95,9 ⇓n/a96651n/a
26.09 15:00-3,5-9,24,9 ⇓n/a96551n/a
26.09 14:00-4,1-10,65,9 ⇘n/a96556n/a
26.09 13:00-3,7-9,65,1 ⇘n/a96554n/a
26.09 12:00-3,7-10,05,9 ⇓n/a96554n/a
26.09 11:00-3,5-10,26,7 ⇓n/a96551n/a
26.09 10:00-4,0-10,96,7 ⇓n/a96551n/a
26.09 09:00-5,0-12,26,6 ⇓n/a96556n/a
26.09 08:00-5,4-12,76,6 ⇓n/a96559n/a
26.09 07:00-4,7-11,05,3 ⇓n/a96556n/a
26.09 06:00-4,3-10,85,7 ⇓n/a96555n/a
26.09 05:00-5,2-11,85,4 ⇓n/a96561n/a
26.09 04:00-3,9-10,66,4 ⇓n/a96555n/a
26.09 03:00-3,5-9,96,0 ⇓n/a96456n/a
Position: (72.223,-26.8182)

[Back]